Weather History for KCDD - October, 2013

Change the Weather History Date:

Saturday, October 19, 2013

  Actual Average Record
Temperature  
Mean Temperature 37 °F -  
Max Temperature 48 °F 47 °F 78 °F (2000)
Min Temperature 26 °F 32 °F 24 °F (2010)
Degree Days  
Heating Degree Days 28    
Moisture  
Dew Point 33 °F    
Average Humidity 95    
Maximum Humidity 100    
Minimum Humidity 87    
Precipitation  
Precipitation 0.00 in - - ()
Sea Level Pressure  
Sea Level Pressure 29.71 in    
Wind  
Wind Speed 1 mph (NW)    
Max Wind Speed 7 mph    
Max Gust Speed -    
Visibility 10 miles    
Events      
Averages and records for this station are not official NWS values.
T = Trace of Precipitation, MM = Missing Value Source: NWS Daily Summary

Daily Weather History Graph

Daily Weather History Graph

Search for Another Location

Airport or City:

Trip Planner

Search our weather history database for the weather conditions in past years. The results will help you decide how hot, cold, wet, or windy it might be!

Date:

Astronomy

Oct. 19, 2013 Rise Set
Actual Time 7:35 AM CDT 6:12 PM CDT
Civil Twilight 7:04 AM CDT 6:44 PM CDT
Nautical Twilight 6:27 AM CDT 7:20 PM CDT
Astronomical Twilight 5:51 AM CDT 7:56 PM CDT
Moon 6:35 PM CDT (10/19) 8:18 AM CDT (10/19)
Length of Visible Light 11h 40m
Length of Day
10h 36m
Waxing Gibbous, 99% of the Moon is Illuminated
Oct 19
Waxing Gibbous
Oct 26
Last Quarter
Nov 3
New
Nov 9
First Quarter
Nov 17
Full

Hourly Weather History & Observations

Time (CDT) Temp. Windchill Dew Point Humidity Pressure Visibility Wind Dir Wind Speed Gust Speed Precip Events Conditions
12:12 AM 28.4 °F 24.6 °F 26.6 °F 93% 29.76 in 10.0 mi South 3.5 mph - N/A   Overcast
12:32 AM 30.2 °F - 28.4 °F 93% 29.75 in 10.0 mi Calm Calm - N/A   Overcast
12:52 AM 30.2 °F - 28.4 °F 93% 29.74 in 10.0 mi Calm Calm - N/A   Overcast
1:12 AM 30.2 °F - 28.4 °F 93% 29.74 in 10.0 mi Calm Calm - N/A   Overcast
1:32 AM 30.2 °F - 28.4 °F 93% 29.73 in 10.0 mi Calm Calm - N/A   Overcast
1:52 AM 30.2 °F - 28.4 °F 93% 29.73 in 10.0 mi Calm Calm - N/A   Overcast
2:12 AM 30.2 °F - 28.4 °F 93% 29.72 in 10.0 mi Calm Calm - N/A   Overcast
2:32 AM 30.2 °F - 30.2 °F 100% 29.72 in 10.0 mi Calm Calm - N/A   Overcast
2:52 AM 30.2 °F - 30.2 °F 100% 29.72 in 10.0 mi Calm Calm - N/A   Overcast
3:12 AM 30.2 °F - 30.2 °F 100% 29.72 in 10.0 mi Calm Calm - N/A   Light Freezing Rain
3:32 AM 30.2 °F - 30.2 °F 100% 29.71 in 10.0 mi Calm Calm - N/A   Overcast
3:52 AM 30.2 °F - 30.2 °F 100% 29.70 in 10.0 mi Calm Calm - N/A   Overcast
4:12 AM 30.2 °F - 30.2 °F 100% 29.70 in 10.0 mi Calm Calm - N/A   Overcast
4:32 AM 30.2 °F - 30.2 °F 100% 29.69 in 10.0 mi Calm Calm - N/A   Overcast
4:52 AM 30.2 °F - 30.2 °F 100% 29.69 in 10.0 mi Calm Calm - N/A   Overcast
5:12 AM 32.0 °F - 30.2 °F 93% 29.69 in 10.0 mi Calm Calm - N/A   Overcast
5:32 AM 30.2 °F - 30.2 °F 100% 29.69 in 10.0 mi Calm Calm - N/A   Overcast
5:52 AM 32.0 °F - 30.2 °F 93% 29.69 in 10.0 mi Calm Calm - N/A   Overcast
6:12 AM 30.2 °F - 30.2 °F 100% 29.69 in 10.0 mi Calm Calm - N/A   Overcast
6:32 AM 30.2 °F - 30.2 °F 100% 29.69 in 10.0 mi Calm Calm - N/A   Overcast
6:52 AM 30.2 °F - 30.2 °F 100% 29.68 in 10.0 mi Calm Calm - N/A   Overcast
7:12 AM 30.2 °F - 28.4 °F 93% 29.68 in 10.0 mi Calm Calm - N/A   Overcast
7:32 AM 30.2 °F - 28.4 °F 93% 29.68 in 10.0 mi Calm Calm - N/A   Overcast
7:52 AM 30.2 °F - 28.4 °F 93% 29.68 in 10.0 mi Calm Calm - N/A   Overcast
8:12 AM 28.4 °F - 28.4 °F 100% 29.69 in 10.0 mi Calm Calm - N/A   Mostly Cloudy
9:12 AM 33.8 °F - 33.8 °F 100% 29.69 in 10.0 mi Calm Calm - N/A   Overcast
9:32 AM 35.6 °F - 35.6 °F 100% 29.69 in 10.0 mi Calm Calm - N/A   Overcast
9:52 AM 37.4 °F - 35.6 °F 93% 29.69 in 10.0 mi Calm Calm - N/A   Overcast
10:12 AM 37.4 °F - 37.4 °F 100% 29.69 in 10.0 mi Calm Calm - N/A   Overcast
10:32 AM 39.2 °F - 37.4 °F 93% 29.69 in 10.0 mi Calm Calm - N/A   Overcast
10:52 AM 39.2 °F - 37.4 °F 93% 29.69 in 10.0 mi Calm Calm - N/A   Overcast
11:12 AM 39.2 °F - 39.2 °F 100% 29.69 in 10.0 mi Calm Calm - N/A   Overcast
11:32 AM 39.2 °F - 39.2 °F 100% 29.69 in 10.0 mi Calm Calm - N/A   Overcast
11:52 AM 39.2 °F 37.0 °F 39.2 °F 100% 29.69 in 10.0 mi WNW 3.5 mph - N/A   Overcast
12:12 PM 39.2 °F - 39.2 °F 100% 29.69 in 10.0 mi Calm Calm - N/A   Overcast
12:32 PM 41.0 °F - 39.2 °F 93% 29.69 in 10.0 mi Calm Calm - N/A   Overcast
12:52 PM 42.8 °F - 42.8 °F 100% 29.68 in 10.0 mi Calm Calm - N/A   Overcast
1:12 PM 44.6 °F 43.1 °F 44.6 °F 100% 29.67 in 10.0 mi SW 3.5 mph - N/A   Overcast
1:32 PM 48.2 °F - 46.4 °F 93% 29.67 in 10.0 mi NNW 5.8 mph - N/A   Overcast
1:52 PM 41.0 °F 36.4 °F 39.2 °F 93% 29.68 in 10.0 mi NW 6.9 mph - N/A   Overcast
2:12 PM 39.2 °F 35.0 °F 37.4 °F 93% 29.68 in 10.0 mi NW 5.8 mph - N/A   Overcast
2:32 PM 39.2 °F 35.9 °F 39.2 °F 100% 29.68 in 10.0 mi NNW 4.6 mph - N/A   Overcast
2:52 PM 39.2 °F 37.0 °F 39.2 °F 100% 29.68 in 10.0 mi NNW 3.5 mph - N/A   Overcast
3:12 PM 41.0 °F 39.0 °F 39.2 °F 93% 29.69 in 10.0 mi North 3.5 mph - N/A   Overcast
3:32 PM 41.0 °F - 39.2 °F 93% 29.69 in 10.0 mi Calm Calm - N/A   Scattered Clouds
3:52 PM 42.8 °F - 39.2 °F 87% 29.69 in 10.0 mi Calm Calm - N/A   Overcast
4:12 PM 46.4 °F 45.2 °F 44.6 °F 93% 29.69 in 10.0 mi NW 3.5 mph - N/A   Overcast
4:32 PM 46.4 °F - 44.6 °F 93% 29.69 in 10.0 mi North - - N/A   Mostly Cloudy
4:52 PM 46.4 °F 45.2 °F 42.8 °F 87% 29.69 in 10.0 mi NNW 3.5 mph - N/A   Mostly Cloudy
5:12 PM 44.6 °F 42.2 °F 42.8 °F 93% 29.70 in 10.0 mi North 4.6 mph - N/A   Mostly Cloudy
5:32 PM 39.2 °F - 37.4 °F 93% 29.71 in 10.0 mi Calm Calm - N/A   Mostly Cloudy
5:52 PM 37.4 °F - 35.6 °F 93% 29.72 in 10.0 mi Calm Calm - N/A   Scattered Clouds
6:12 PM 33.8 °F - 32.0 °F 93% 29.72 in 10.0 mi Calm Calm - N/A   Clear
6:32 PM 32.0 °F - 30.2 °F 93% 29.73 in 10.0 mi Calm Calm - N/A   Mostly Cloudy
6:52 PM 30.2 °F - 28.4 °F 93% 29.73 in 10.0 mi Calm Calm - N/A   Mostly Cloudy
7:12 PM 33.8 °F - 30.2 °F 87% 29.73 in 10.0 mi Calm Calm - N/A   Mostly Cloudy
7:32 PM 33.8 °F - 32.0 °F 93% 29.74 in 10.0 mi Calm Calm - N/A   Scattered Clouds
7:52 PM 32.0 °F - 30.2 °F 93% 29.73 in 10.0 mi Calm Calm - N/A   Scattered Clouds
8:12 PM 33.8 °F - 30.2 °F 87% 29.74 in 10.0 mi Calm Calm - N/A   Mostly Cloudy
8:32 PM 33.8 °F - 32.0 °F 93% 29.74 in 10.0 mi Calm Calm - N/A   Overcast
8:52 PM 33.8 °F - 32.0 °F 93% 29.74 in 10.0 mi Calm Calm - N/A   Drizzle
9:12 PM 33.8 °F 30.8 °F 32.0 °F 93% 29.74 in 10.0 mi WSW 3.5 mph - N/A   Drizzle
9:32 PM 33.8 °F 30.8 °F 32.0 °F 93% 29.75 in 10.0 mi WSW 3.5 mph - N/A   Overcast
9:52 PM 33.8 °F - 32.0 °F 93% 29.75 in 10.0 mi Calm Calm - N/A   Overcast
10:12 PM 33.8 °F 29.6 °F 32.0 °F 93% 29.74 in 10.0 mi WSW 4.6 mph - N/A   Overcast
10:32 PM 32.0 °F - 30.2 °F 93% 29.74 in 10.0 mi Calm Calm - N/A   Scattered Clouds
10:52 PM 28.4 °F - 26.6 °F 93% 29.74 in 7.0 mi Calm Calm - N/A   Clear
11:12 PM 26.6 °F - 26.6 °F 100% 29.74 in 10.0 mi Calm Calm - N/A   Clear
11:32 PM 26.6 °F - 24.8 °F 93% 29.74 in 10.0 mi Calm Calm - N/A   Clear
11:52 PM 26.6 °F - 24.8 °F 93% 29.74 in 10.0 mi Calm Calm - N/A   Clear